Location: Lancaster
(34.6980°N, 118.1360°W)
Time: 19:05:36
(UTC-08:00)

Tiangong 1 - Pass Details

Date: 15 November 2017
Orbit: 285 x 309 km, 42.8° (Epoch: 18 November)

Event Time Altitude Azimuth Distance (km) Brightness Sun altitude
Exits shadow 05:13:45 15° 207° (SSW) 897 2.8 -15.1°
Drops below altitude 10° 05:15:01 10° 177° (S) 1,131 3.6 -14.9°
Sets 05:17:25 0° 153° (SSE) 1,951 5.3 -14.4°
